Time,TemperatureF,DewpointF,PressureIn,WindDirection,WindDirectionDegrees,WindSpeedMPH,WindSpeedGustMPH,Humidity,HourlyPrecipIn,Conditions,Clouds,dailyrainin,SoftwareType,DateUTC
2013-02-16 00:00:00,30.1,22.8,30.30,ESE,107,1.0,2.0,74,0.00,,---,0.03,VWS V13.01,2013-02-16 07:00:00,
2013-02-16 00:05:00,30.1,22.8,30.30,ESE,107,0.0,0.0,74,0.00,,---,0.00,VWS V13.01,2013-02-16 07:05:00,
2013-02-16 00:10:00,30.1,22.5,30.30,ESE,107,0.0,0.0,73,0.00,,---,0.00,VWS V13.01,2013-02-16 07:10:00,
2013-02-16 00:15:00,30.0,21.8,30.30,ESE,107,0.0,2.0,71,0.00,,---,0.00,VWS V13.01,2013-02-16 07:15:00,
2013-02-16 00:20:00,29.5,21.3,30.30,ESE,107,0.0,0.0,71,0.00,,---,0.00,VWS V13.01,2013-02-16 07:20:00,
2013-02-16 00:25:00,29.4,22.1,30.30,ESE,107,0.0,0.0,74,0.00,,---,0.00,VWS V13.01,2013-02-16 07:25:00,
2013-02-16 00:30:00,29.3,22.4,30.31,ESE,107,0.0,0.0,75,0.00,,---,0.00,VWS V13.01,2013-02-16 07:30:00,
2013-02-16 00:35:00,29.4,22.1,30.31,ESE,107,0.0,0.0,74,0.00,,---,0.00,VWS V13.01,2013-02-16 07:35:00,
2013-02-16 00:40:00,29.3,21.7,30.31,ESE,107,0.0,0.0,73,0.00,,---,0.00,VWS V13.01,2013-02-16 07:40:00,
2013-02-16 00:45:00,29.3,22.1,30.31,ESE,107,0.0,0.0,74,0.00,,---,0.00,VWS V13.01,2013-02-16 07:45:00,
2013-02-16 00:51:00,29.1,21.2,30.31,ESE,107,0.0,0.0,72,0.00,,---,0.00,VWS V13.01,2013-02-16 07:51:00,
2013-02-16 00:56:00,29.0,21.8,30.31,ESE,107,0.0,1.0,74,0.00,,---,0.00,VWS V13.01,2013-02-16 07:56:00,
2013-02-16 01:01:00,28.8,21.9,30.31,ESE,107,0.0,0.0,75,0.00,,---,0.00,VWS V13.01,2013-02-16 08:01:00,
2013-02-16 01:06:00,28.5,21.3,30.31,ESE,107,0.0,3.0,74,0.00,,---,0.00,VWS V13.01,2013-02-16 08:06:00,
2013-02-16 01:11:00,28.4,21.8,30.31,ESE,107,0.0,0.0,76,0.00,,---,0.00,VWS V13.01,2013-02-16 08:11:00,
2013-02-16 01:16:00,28.5,21.3,30.29,ESE,107,0.0,1.0,74,0.00,,---,0.00,VWS V13.01,2013-02-16 08:16:00,
2013-02-16 01:21:00,28.4,21.5,30.29,ESE,107,0.0,0.0,75,0.00,,---,0.00,VWS V13.01,2013-02-16 08:21:00,
2013-02-16 01:26:00,28.5,21.9,30.29,ESE,107,0.0,0.0,76,0.00,,---,0.00,VWS V13.01,2013-02-16 08:26:00,
2013-02-16 01:31:00,28.4,21.5,30.29,ESE,107,0.0,1.0,75,0.00,,---,0.00,VWS V13.01,2013-02-16 08:31:00,
2013-02-16 01:36:00,28.2,21.3,30.29,ESE,107,0.0,0.0,75,0.00,,---,0.00,VWS V13.01,2013-02-16 08:36:00,
2013-02-16 01:41:00,28.4,21.8,30.29,ESE,107,1.0,1.0,76,0.00,,---,0.00,VWS V13.01,2013-02-16 08:41:00,
2013-02-16 01:46:00,28.2,21.3,30.29,ESE,107,0.0,1.0,75,0.00,,---,0.00,VWS V13.01,2013-02-16 08:46:00,
2013-02-16 01:51:00,28.2,21.0,30.29,ESE,107,0.0,2.0,74,0.00,,---,0.00,VWS V13.01,2013-02-16 08:51:00,
2013-02-16 01:56:00,28.1,21.5,30.29,ESE,107,0.0,0.0,76,0.00,,---,0.00,VWS V13.01,2013-02-16 08:56:00,
2013-02-16 02:01:00,28.1,21.2,30.28,ESE,107,0.0,2.0,75,0.00,,---,0.00,VWS V13.01,2013-02-16 09:01:00,
2013-02-16 02:06:00,28.2,21.9,30.28,ESE,107,0.0,0.0,77,0.00,,---,0.00,VWS V13.01,2013-02-16 09:06:00,
2013-02-16 02:11:00,28.4,21.8,30.28,ESE,107,0.0,1.0,76,0.00,,---,0.00,VWS V13.01,2013-02-16 09:11:00,
2013-02-16 02:16:00,28.2,21.3,30.28,ESE,107,0.0,1.0,75,0.00,,---,0.00,VWS V13.01,2013-02-16 09:16:00,
2013-02-16 02:21:00,28.2,21.6,30.28,ESE,107,0.0,2.0,76,0.00,,---,0.00,VWS V13.01,2013-02-16 09:21:00,
2013-02-16 02:26:00,27.8,20.9,30.28,ESE,107,0.0,1.0,75,0.00,,---,0.00,VWS V13.01,2013-02-16 09:26:00,
2013-02-16 02:31:00,27.9,21.3,30.28,ESE,107,0.0,2.0,76,0.00,,---,0.00,VWS V13.01,2013-02-16 09:31:00,
2013-02-16 02:39:00,28.1,21.8,30.28,ESE,107,0.0,0.0,77,0.00,,---,0.00,VWS V13.01,2013-02-16 09:39:00,
2013-02-16 02:44:00,28.4,21.8,30.28,ESE,107,0.0,0.0,76,0.00,,---,0.00,VWS V13.01,2013-02-16 09:44:00,
2013-02-16 02:49:00,28.5,21.6,30.27,ESE,107,0.0,0.0,75,0.00,,---,0.00,VWS V13.01,2013-02-16 09:49:00,
2013-02-16 02:54:00,28.5,21.3,30.27,ESE,107,0.0,0.0,74,0.00,,---,0.00,VWS V13.01,2013-02-16 09:54:00,
2013-02-16 02:59:00,28.4,21.5,30.27,ESE,107,0.0,0.0,75,0.00,,---,0.00,VWS V13.01,2013-02-16 09:59:00,
2013-02-16 03:05:00,28.4,21.8,30.26,ESE,107,0.0,0.0,76,0.00,,---,0.00,VWS V13.01,2013-02-16 10:05:00,
2013-02-16 03:10:00,28.5,21.3,30.26,ESE,107,0.0,0.0,74,0.00,,---,0.00,VWS V13.01,2013-02-16 10:10:00,
2013-02-16 03:15:00,28.4,21.5,30.26,ESE,107,0.0,2.0,75,0.00,,---,0.00,VWS V13.01,2013-02-16 10:15:00,
2013-02-16 03:20:00,28.2,21.0,30.27,ESE,107,0.0,1.0,74,0.00,,---,0.00,VWS V13.01,2013-02-16 10:20:00,
2013-02-16 03:25:00,28.2,21.6,30.27,ESE,107,0.0,0.0,76,0.00,,---,0.00,VWS V13.01,2013-02-16 10:25:00,
2013-02-16 03:30:00,28.2,21.0,30.27,ESE,107,0.0,1.0,74,0.00,,---,0.00,VWS V13.01,2013-02-16 10:30:00,
2013-02-16 03:35:00,28.1,20.9,30.27,ESE,107,0.0,0.0,74,0.00,,---,0.00,VWS V13.01,2013-02-16 10:35:00,
2013-02-16 03:40:00,28.1,21.2,30.27,ESE,107,0.0,1.0,75,0.00,,---,0.00,VWS V13.01,2013-02-16 10:40:00,
2013-02-16 03:45:00,27.8,20.6,30.27,East,99,0.0,3.0,74,0.00,,---,0.00,VWS V13.01,2013-02-16 10:45:00,
2013-02-16 03:50:00,27.8,20.9,30.27,East,99,0.0,0.0,75,0.00,,---,0.00,VWS V13.01,2013-02-16 10:50:00,
2013-02-16 03:55:00,27.9,21.3,30.27,East,99,0.0,0.0,76,0.00,,---,0.00,VWS V13.01,2013-02-16 10:55:00,
2013-02-16 04:00:00,27.9,20.7,30.26,East,99,0.0,1.0,74,0.00,,---,0.00,VWS V13.01,2013-02-16 11:00:00,
2013-02-16 04:06:00,27.6,20.4,30.26,East,99,0.0,2.0,74,0.00,,---,0.00,VWS V13.01,2013-02-16 11:06:00,
2013-02-16 04:11:00,27.5,20.9,30.26,East,99,0.0,0.0,76,0.00,,---,0.00,VWS V13.01,2013-02-16 11:11:00,
2013-02-16 04:16:00,27.5,20.6,30.27,East,99,0.0,0.0,75,0.00,,---,0.00,VWS V13.01,2013-02-16 11:16:00,
2013-02-16 04:21:00,27.5,20.9,30.27,East,99,0.0,1.0,76,0.00,,---,0.00,VWS V13.01,2013-02-16 11:21:00,
2013-02-16 04:26:00,27.3,21.1,30.27,East,99,0.0,0.0,77,0.00,,---,0.00,VWS V13.01,2013-02-16 11:26:00,
2013-02-16 04:31:00,27.2,20.3,30.27,East,99,0.0,1.0,75,0.00,,---,0.00,VWS V13.01,2013-02-16 11:31:00,
2013-02-16 04:36:00,27.2,20.6,30.27,ESE,102,0.0,2.0,76,0.00,,---,0.00,VWS V13.01,2013-02-16 11:36:00,
2013-02-16 04:41:00,27.0,20.8,30.27,ESE,102,0.0,0.0,77,0.00,,---,0.00,VWS V13.01,2013-02-16 11:41:00,
2013-02-16 04:46:00,27.2,20.6,30.26,ESE,102,0.0,1.0,76,0.00,,---,0.00,VWS V13.01,2013-02-16 11:46:00,
2013-02-16 04:51:00,27.2,21.0,30.26,ESE,102,0.0,0.0,77,0.00,,---,0.00,VWS V13.01,2013-02-16 11:51:00,
2013-02-16 04:56:00,27.3,20.4,30.26,ESE,102,0.0,0.0,75,0.00,,---,0.00,VWS V13.01,2013-02-16 11:56:00,
2013-02-16 05:01:00,27.2,21.0,30.26,ESE,102,0.0,0.0,77,0.00,,---,0.00,VWS V13.01,2013-02-16 12:01:00,
2013-02-16 05:06:00,27.3,20.8,30.26,ESE,102,0.0,0.0,76,0.00,,---,0.00,VWS V13.01,2013-02-16 12:06:00,
2013-02-16 05:11:00,27.2,20.6,30.26,ESE,102,0.0,0.0,76,0.00,,---,0.00,VWS V13.01,2013-02-16 12:11:00,
2013-02-16 05:17:00,27.0,20.5,30.27,ESE,102,0.0,0.0,76,0.00,,---,0.00,VWS V13.01,2013-02-16 12:17:00,
2013-02-16 05:22:00,27.0,20.5,30.27,ESE,102,0.0,0.0,76,0.00,,---,0.00,VWS V13.01,2013-02-16 12:22:00,
2013-02-16 05:27:00,26.9,20.0,30.27,ESE,102,0.0,0.0,75,0.00,,---,0.00,VWS V13.01,2013-02-16 12:27:00,
2013-02-16 05:32:00,26.7,20.2,30.27,ESE,102,0.0,0.0,76,0.00,,---,0.00,VWS V13.01,2013-02-16 12:32:00,
2013-02-16 05:37:00,26.7,20.2,30.27,ESE,102,0.0,0.0,76,0.00,,---,0.00,VWS V13.01,2013-02-16 12:37:00,
2013-02-16 05:42:00,26.9,19.7,30.27,ESE,102,0.0,0.0,74,0.00,,---,0.00,VWS V13.01,2013-02-16 12:42:00,
2013-02-16 05:47:00,27.0,20.5,30.27,ESE,102,0.0,1.0,76,0.00,,---,0.00,VWS V13.01,2013-02-16 12:47:00,
2013-02-16 05:52:00,27.0,20.5,30.27,ESE,102,0.0,0.0,76,0.00,,---,0.00,VWS V13.01,2013-02-16 12:52:00,
2013-02-16 05:57:00,27.2,20.0,30.27,ESE,102,0.0,0.0,74,0.00,,---,0.00,VWS V13.01,2013-02-16 12:57:00,
2013-02-16 06:02:00,26.7,19.2,30.27,ESE,102,0.0,0.0,73,0.00,,---,0.00,VWS V13.01,2013-02-16 13:02:00,
2013-02-16 06:07:00,26.3,19.1,30.27,ESE,102,0.0,0.0,74,0.00,,---,0.00,VWS V13.01,2013-02-16 13:07:00,
2013-02-16 06:12:00,26.1,19.3,30.27,ESE,102,0.0,0.0,75,0.00,,---,0.00,VWS V13.01,2013-02-16 13:12:00,
2013-02-16 06:17:00,26.1,19.6,30.27,ESE,102,0.0,0.0,76,0.00,,---,0.00,VWS V13.01,2013-02-16 13:17:00,
2013-02-16 06:22:00,26.1,19.3,30.27,ESE,102,0.0,0.0,75,0.00,,---,0.00,VWS V13.01,2013-02-16 13:22:00,
2013-02-16 06:28:00,26.3,19.5,30.27,ESE,102,0.0,0.0,75,0.00,,---,0.00,VWS V13.01,2013-02-16 13:28:00,
2013-02-16 06:33:00,26.3,19.8,30.27,ESE,102,0.0,0.0,76,0.00,,---,0.00,VWS V13.01,2013-02-16 13:33:00,
2013-02-16 06:38:00,26.1,19.3,30.27,ESE,102,0.0,0.0,75,0.00,,---,0.00,VWS V13.01,2013-02-16 13:38:00,
2013-02-16 06:43:00,26.1,19.3,30.27,ESE,102,0.0,0.0,75,0.00,,---,0.00,VWS V13.01,2013-02-16 13:43:00,
2013-02-16 06:48:00,26.4,19.6,30.26,ESE,102,0.0,0.0,75,0.00,,---,0.00,VWS V13.01,2013-02-16 13:48:00,
2013-02-16 06:53:00,26.7,20.2,30.26,ESE,102,0.0,0.0,76,0.00,,---,0.00,VWS V13.01,2013-02-16 13:53:00,
2013-02-16 06:58:00,27.2,20.3,30.26,ESE,102,0.0,0.0,75,0.00,,---,0.00,VWS V13.01,2013-02-16 13:58:00,
2013-02-16 07:03:00,27.3,19.8,30.25,ESE,102,0.0,1.0,73,0.00,,---,0.00,VWS V13.01,2013-02-16 14:03:00,
2013-02-16 07:08:00,27.3,19.8,30.25,ESE,102,0.0,0.0,73,0.00,,---,0.00,VWS V13.01,2013-02-16 14:08:00,
2013-02-16 07:13:00,27.5,20.3,30.25,ESE,102,0.0,0.0,74,0.00,,---,0.00,VWS V13.01,2013-02-16 14:13:00,
2013-02-16 07:18:00,27.6,20.4,30.23,ESE,102,0.0,0.0,74,0.00,,---,0.00,VWS V13.01,2013-02-16 14:18:00,
2013-02-16 07:23:00,27.5,20.0,30.23,ESE,102,0.0,0.0,73,0.00,,---,0.00,VWS V13.01,2013-02-16 14:23:00,
2013-02-16 07:28:00,27.5,20.3,30.23,ESE,102,0.0,0.0,74,0.00,,---,0.00,VWS V13.01,2013-02-16 14:28:00,
2013-02-16 07:33:00,27.3,19.8,30.23,ESE,102,0.0,0.0,73,0.00,,---,0.00,VWS V13.01,2013-02-16 14:33:00,
2013-02-16 07:38:00,27.3,19.8,30.23,ESE,102,0.0,0.0,73,0.00,,---,0.00,VWS V13.01,2013-02-16 14:38:00,
2013-02-16 07:44:00,27.2,19.7,30.23,ESE,102,0.0,0.0,73,0.00,,---,0.00,VWS V13.01,2013-02-16 14:44:00,
2013-02-16 07:49:00,27.0,19.5,30.22,ESE,102,0.0,0.0,73,0.00,,---,0.00,VWS V13.01,2013-02-16 14:49:00,
2013-02-16 07:54:00,26.9,19.1,30.22,ESE,102,0.0,0.0,72,0.00,,---,0.00,VWS V13.01,2013-02-16 14:54:00,
2013-02-16 07:59:00,26.6,18.8,30.22,ESE,102,0.0,0.0,72,0.00,,---,0.00,VWS V13.01,2013-02-16 14:59:00,
2013-02-16 08:04:00,26.3,19.5,30.24,ESE,102,0.0,0.0,75,0.00,,---,0.00,VWS V13.01,2013-02-16 15:04:00,
2013-02-16 08:09:00,26.1,19.3,30.24,ESE,102,0.0,0.0,75,0.00,,---,0.00,VWS V13.01,2013-02-16 15:09:00,
2013-02-16 08:14:00,26.0,18.9,30.24,ESE,102,0.0,0.0,74,0.00,,---,0.00,VWS V13.01,2013-02-16 15:14:00,
2013-02-16 08:19:00,26.0,19.5,30.26,ESE,102,0.0,0.0,76,0.00,,---,0.00,VWS V13.01,2013-02-16 15:19:00,
2013-02-16 08:24:00,26.1,19.6,30.26,ESE,102,0.0,0.0,76,0.00,,---,0.00,VWS V13.01,2013-02-16 15:24:00,
2013-02-16 08:29:00,26.1,19.3,30.26,ESE,102,0.0,0.0,75,0.00,,---,0.00,VWS V13.01,2013-02-16 15:29:00,
2013-02-16 08:34:00,26.1,19.6,30.26,ESE,102,0.0,0.0,76,0.00,,---,0.00,VWS V13.01,2013-02-16 15:34:00,
2013-02-16 08:39:00,26.3,20.1,30.26,ESE,102,0.0,0.0,77,0.00,,---,0.00,VWS V13.01,2013-02-16 15:39:00,
2013-02-16 08:45:00,26.7,19.9,30.26,ESE,102,0.0,0.0,75,0.00,,---,0.00,VWS V13.01,2013-02-16 15:45:00,
2013-02-16 08:50:00,26.9,20.7,30.25,ESE,102,0.0,0.0,77,0.00,,---,0.00,VWS V13.01,2013-02-16 15:50:00,
2013-02-16 08:55:00,27.2,20.3,30.25,NW,312,0.0,3.0,75,0.00,,---,0.00,VWS V13.01,2013-02-16 15:55:00,
2013-02-16 09:00:00,27.5,20.6,30.25,NNW,328,1.0,1.0,75,0.00,,---,0.00,VWS V13.01,2013-02-16 16:00:00,
2013-02-16 09:05:00,27.8,21.2,30.23,NNW,328,0.0,0.0,76,0.00,,---,0.00,VWS V13.01,2013-02-16 16:05:00,
2013-02-16 09:10:00,27.9,20.7,30.23,NNW,338,0.0,2.0,74,0.00,,---,0.00,VWS V13.01,2013-02-16 16:10:00,
2013-02-16 09:15:00,28.2,20.7,30.24,NNW,338,0.0,0.0,73,0.00,,---,0.00,VWS V13.01,2013-02-16 16:15:00,
2013-02-16 09:20:00,28.4,20.5,30.24,NNW,338,0.0,0.0,72,0.00,,---,0.00,VWS V13.01,2013-02-16 16:20:00,
2013-02-16 09:25:00,28.4,20.5,30.24,NNW,338,0.0,0.0,72,0.00,,---,0.00,VWS V13.01,2013-02-16 16:25:00,
2013-02-16 09:31:00,28.4,20.5,30.24,North,355,2.0,2.0,72,0.00,,---,0.00,VWS V13.01,2013-02-16 16:31:00,
2013-02-16 09:36:00,28.5,20.6,30.24,North,5,0.0,1.0,72,0.00,,---,0.00,VWS V13.01,2013-02-16 16:36:00,
2013-02-16 09:41:00,28.8,20.6,30.24,North,5,0.0,0.0,71,0.00,,---,0.00,VWS V13.01,2013-02-16 16:41:00,
2013-02-16 09:46:00,29.1,20.5,30.22,NNE,16,0.0,0.0,70,0.00,,---,0.00,VWS V13.01,2013-02-16 16:46:00,
2013-02-16 09:51:00,29.4,20.5,30.22,NNW,327,0.0,2.0,69,0.00,,---,0.00,VWS V13.01,2013-02-16 16:51:00,
2013-02-16 09:56:00,29.5,20.9,30.22,WSW,246,0.0,3.0,70,0.00,,---,0.00,VWS V13.01,2013-02-16 16:56:00,
2013-02-16 10:01:00,29.7,20.8,30.21,WSW,248,0.0,1.0,69,0.00,,---,0.00,VWS V13.01,2013-02-16 17:01:00,
2013-02-16 10:06:00,29.8,21.6,30.21,WSW,248,0.0,0.0,71,0.00,,---,0.00,VWS V13.01,2013-02-16 17:06:00,
2013-02-16 10:11:00,30.3,21.4,30.21,WSW,248,0.0,1.0,69,0.00,,---,0.00,VWS V13.01,2013-02-16 17:11:00,
2013-02-16 10:16:00,30.6,22.0,30.21,WSW,248,0.0,1.0,70,0.00,,---,0.00,VWS V13.01,2013-02-16 17:16:00,
2013-02-16 10:21:00,30.9,21.6,30.21,NNE,13,0.0,3.0,68,0.00,,---,0.00,VWS V13.01,2013-02-16 17:21:00,
2013-02-16 10:26:00,31.3,21.6,30.21,North,10,0.0,3.0,67,0.00,,---,0.00,VWS V13.01,2013-02-16 17:26:00,
2013-02-16 10:31:00,31.6,21.9,30.19,North,10,0.0,0.0,67,0.00,,---,0.00,VWS V13.01,2013-02-16 17:31:00,
2013-02-16 10:36:00,32.1,22.8,30.19,North,10,0.0,1.0,68,0.00,,---,0.00,VWS V13.01,2013-02-16 17:36:00,
2013-02-16 10:42:00,32.7,23.0,30.19,North,10,0.0,0.0,67,0.00,,---,0.00,VWS V13.01,2013-02-16 17:42:00,
2013-02-16 10:47:00,33.4,23.6,30.18,NNE,13,0.0,0.0,67,0.00,,---,0.00,VWS V13.01,2013-02-16 17:47:00,
2013-02-16 10:52:00,34.1,24.3,30.18,North,350,0.0,3.0,67,0.00,,---,0.00,VWS V13.01,2013-02-16 17:52:00,
2013-02-16 10:57:00,34.6,24.4,30.18,North,360,0.0,0.0,66,0.00,,---,0.00,VWS V13.01,2013-02-16 17:57:00,
2013-02-16 11:02:00,35.0,24.4,30.17,North,360,0.0,0.0,65,0.00,,---,0.00,VWS V13.01,2013-02-16 18:02:00,
2013-02-16 11:07:00,35.3,24.4,30.17,NNW,333,0.0,0.0,64,0.00,,---,0.00,VWS V13.01,2013-02-16 18:07:00,
2013-02-16 11:12:00,35.8,24.8,30.17,WNW,300,0.0,2.0,64,0.00,,---,0.00,VWS V13.01,2013-02-16 18:12:00,
2013-02-16 11:17:00,36.0,25.0,30.15,WNW,286,1.0,2.0,64,0.00,,---,0.00,VWS V13.01,2013-02-16 18:17:00,
2013-02-16 11:22:00,36.3,25.7,30.15,NNE,26,0.0,1.0,65,0.00,,---,0.00,VWS V13.01,2013-02-16 18:22:00,
2013-02-16 11:27:00,36.3,25.3,30.15,NNE,26,0.0,0.0,64,0.00,,---,0.00,VWS V13.01,2013-02-16 18:27:00,
2013-02-16 11:32:00,35.9,24.9,30.15,WSW,246,0.0,0.0,64,0.00,,---,0.00,VWS V13.01,2013-02-16 18:32:00,
2013-02-16 11:37:00,35.5,24.9,30.15,WSW,246,0.0,0.0,65,0.00,,---,0.00,VWS V13.01,2013-02-16 18:37:00,
2013-02-16 11:43:00,35.3,25.1,30.15,WSW,247,0.0,0.0,66,0.00,,---,0.00,VWS V13.01,2013-02-16 18:43:00,
2013-02-16 11:48:00,35.2,25.0,30.15,WSW,247,0.0,0.0,66,0.00,,---,0.00,VWS V13.01,2013-02-16 18:48:00,
2013-02-16 11:53:00,35.2,25.4,30.15,NNW,348,1.0,2.0,67,0.00,,---,0.00,VWS V13.01,2013-02-16 18:53:00,
2013-02-16 11:58:00,35.2,25.4,30.15,NNW,333,1.0,1.0,67,0.00,,---,0.00,VWS V13.01,2013-02-16 18:58:00,
2013-02-16 12:03:00,35.3,24.7,30.14,NNW,334,0.0,0.0,65,0.00,,---,0.00,VWS V13.01,2013-02-16 19:03:00,
2013-02-16 12:08:00,35.5,25.3,30.14,NNW,335,0.0,0.0,66,0.00,,---,0.00,VWS V13.01,2013-02-16 19:08:00,
2013-02-16 12:13:00,35.5,25.3,30.14,NNW,335,1.0,2.0,66,0.00,,---,0.00,VWS V13.01,2013-02-16 19:13:00,
2013-02-16 12:18:00,35.6,25.4,30.14,NNW,335,0.0,0.0,66,0.00,,---,0.00,VWS V13.01,2013-02-16 19:18:00,
2013-02-16 12:23:00,35.8,24.8,30.14,NNW,335,0.0,0.0,64,0.00,,---,0.00,VWS V13.01,2013-02-16 19:23:00,
2013-02-16 12:28:00,35.9,24.5,30.14,NNW,335,0.0,0.0,63,0.01,,---,0.01,VWS V13.01,2013-02-16 19:28:00,
2013-02-16 12:33:00,35.9,26.0,30.13,NNW,335,0.0,0.0,67,0.01,,---,0.01,VWS V13.01,2013-02-16 19:33:00,
2013-02-16 12:38:00,35.9,24.9,30.13,NNW,334,0.0,0.0,64,0.01,,---,0.01,VWS V13.01,2013-02-16 19:38:00,
2013-02-16 12:43:00,35.9,26.0,30.13,NNW,334,0.0,0.0,67,0.01,,---,0.01,VWS V13.01,2013-02-16 19:43:00,
2013-02-16 12:49:00,36.0,26.5,30.11,NNW,334,0.0,0.0,68,0.01,,---,0.01,VWS V13.01,2013-02-16 19:49:00,
2013-02-16 12:54:00,36.2,25.2,30.11,NNW,334,0.0,0.0,64,0.01,,---,0.01,VWS V13.01,2013-02-16 19:54:00,
2013-02-16 12:59:00,36.3,24.9,30.11,NNW,334,0.0,0.0,63,0.01,,---,0.01,VWS V13.01,2013-02-16 19:59:00,
2013-02-16 13:04:00,36.5,24.0,30.09,NNW,334,0.0,0.0,60,0.01,,---,0.01,VWS V13.01,2013-02-16 20:04:00,
2013-02-16 13:09:00,36.8,25.0,30.09,NNW,334,0.0,0.0,62,0.01,,---,0.01,VWS V13.01,2013-02-16 20:09:00,
2013-02-16 13:14:00,36.9,23.9,30.09,NNW,334,0.0,1.0,59,0.01,,---,0.01,VWS V13.01,2013-02-16 20:14:00,
2013-02-16 13:19:00,37.2,25.8,30.10,NNW,334,0.0,2.0,63,0.01,,---,0.01,VWS V13.01,2013-02-16 20:19:00,
2013-02-16 13:24:00,37.5,22.8,30.10,NNW,334,0.0,1.0,55,0.01,,---,0.01,VWS V13.01,2013-02-16 20:24:00,
2013-02-16 13:29:00,37.9,24.5,30.10,West,278,0.0,0.0,58,0.00,,---,0.01,VWS V13.01,2013-02-16 20:29:00,
2013-02-16 13:34:00,38.0,22.9,30.08,West,274,0.0,1.0,54,0.00,,---,0.01,VWS V13.01,2013-02-16 20:34:00,
2013-02-16 13:39:00,38.3,23.1,30.08,West,275,0.0,1.0,54,0.00,,---,0.01,VWS V13.01,2013-02-16 20:39:00,
2013-02-16 13:44:00,38.6,23.8,30.08,West,274,0.0,2.0,55,0.00,,---,0.01,VWS V13.01,2013-02-16 20:44:00,
2013-02-16 13:50:00,38.9,23.2,30.07,WSW,252,0.0,2.0,53,0.00,,---,0.01,VWS V13.01,2013-02-16 20:50:00,
2013-02-16 13:55:00,39.1,23.4,30.07,WSW,252,0.0,1.0,53,0.00,,---,0.01,VWS V13.01,2013-02-16 20:55:00,
2013-02-16 14:00:00,39.2,24.0,30.07,North,351,0.0,2.0,54,0.00,,---,0.01,VWS V13.01,2013-02-16 21:00:00,
2013-02-16 14:05:00,39.3,24.5,30.05,NW,321,0.0,1.0,55,0.00,,---,0.01,VWS V13.01,2013-02-16 21:05:00,
2013-02-16 14:10:00,39.3,25.4,30.05,NW,321,0.0,1.0,57,0.00,,---,0.01,VWS V13.01,2013-02-16 21:10:00,
2013-02-16 14:15:00,39.3,26.2,30.05,NW,321,0.0,0.0,59,0.00,,---,0.01,VWS V13.01,2013-02-16 21:15:00,
2013-02-16 14:20:00,39.3,25.4,30.03,NW,321,1.0,1.0,57,0.00,,---,0.01,VWS V13.01,2013-02-16 21:20:00,
2013-02-16 14:25:00,39.3,25.4,30.03,West,279,0.0,2.0,57,0.00,,---,0.01,VWS V13.01,2013-02-16 21:25:00,
2013-02-16 14:30:00,39.5,25.1,30.03,West,279,0.0,1.0,56,0.00,,---,0.01,VWS V13.01,2013-02-16 21:30:00,
2013-02-16 14:35:00,39.8,25.4,30.02,WSW,246,0.0,4.0,56,0.00,,---,0.01,VWS V13.01,2013-02-16 21:35:00,
2013-02-16 14:40:00,40.2,25.8,30.02,WSW,248,0.0,3.0,56,0.00,,---,0.01,VWS V13.01,2013-02-16 21:40:00,
2013-02-16 14:46:00,40.2,25.8,30.01,WSW,248,0.0,1.0,56,0.00,,---,0.01,VWS V13.01,2013-02-16 21:46:00,
2013-02-16 14:51:00,40.2,23.1,30.01,WSW,258,0.0,4.0,50,0.00,,---,0.01,VWS V13.01,2013-02-16 21:51:00,
2013-02-16 14:56:00,40.8,23.6,30.01,SSW,212,0.0,2.0,50,0.00,,---,0.01,VWS V13.01,2013-02-16 21:56:00,
2013-02-16 15:01:00,40.9,22.7,30.00,SW,224,0.0,2.0,48,0.00,,---,0.01,VWS V13.01,2013-02-16 22:01:00,
2013-02-16 15:06:00,41.1,24.8,30.00,WSW,256,0.0,3.0,52,0.00,,---,0.01,VWS V13.01,2013-02-16 22:06:00,
2013-02-16 15:11:00,41.1,23.9,30.00,WSW,257,1.0,3.0,50,0.00,,---,0.01,VWS V13.01,2013-02-16 22:11:00,
2013-02-16 15:16:00,41.8,22.0,29.99,WNW,284,2.0,3.0,45,0.00,,---,0.01,VWS V13.01,2013-02-16 22:16:00,
2013-02-16 15:21:00,42.6,23.3,29.99,WSW,238,0.0,4.0,46,0.00,,---,0.01,VWS V13.01,2013-02-16 22:21:00,
2013-02-16 15:26:00,42.3,24.5,29.99,SW,221,1.0,2.0,49,0.00,,---,0.01,VWS V13.01,2013-02-16 22:26:00,
2013-02-16 15:31:00,42.1,23.8,29.98,SW,228,2.0,2.0,48,0.00,,---,0.01,VWS V13.01,2013-02-16 22:31:00,
2013-02-16 15:36:00,41.8,23.1,29.98,WSW,248,0.0,3.0,47,0.00,,---,0.01,VWS V13.01,2013-02-16 22:36:00,
2013-02-16 15:41:00,42.1,23.3,29.98,WSW,248,0.0,0.0,47,0.00,,---,0.01,VWS V13.01,2013-02-16 22:41:00,
2013-02-16 15:46:00,41.8,25.5,29.97,WSW,248,0.0,0.0,52,0.00,,---,0.01,VWS V13.01,2013-02-16 22:46:00,
2013-02-16 15:52:00,41.5,25.7,29.97,WSW,248,0.0,0.0,53,0.00,,---,0.01,VWS V13.01,2013-02-16 22:52:00,
2013-02-16 15:57:00,41.3,24.5,29.97,SW,236,0.0,0.0,51,0.00,,---,0.01,VWS V13.01,2013-02-16 22:57:00,
2013-02-16 16:02:00,41.2,24.5,29.97,SW,236,0.0,0.0,51,0.00,,---,0.01,VWS V13.01,2013-02-16 23:02:00,
2013-02-16 16:07:00,40.9,25.5,29.97,SW,236,0.0,0.0,54,0.00,,---,0.01,VWS V13.01,2013-02-16 23:07:00,
2013-02-16 16:12:00,40.5,26.0,29.97,SW,236,0.0,0.0,56,0.00,,---,0.01,VWS V13.01,2013-02-16 23:12:00,
2013-02-16 16:17:00,40.1,25.2,29.98,SW,236,0.0,0.0,55,0.00,,---,0.01,VWS V13.01,2013-02-16 23:17:00,
2013-02-16 16:22:00,39.8,26.2,29.98,SW,236,0.0,0.0,58,0.00,,---,0.01,VWS V13.01,2013-02-16 23:22:00,
2013-02-16 16:27:00,39.3,26.6,29.98,SW,236,0.0,0.0,60,0.01,,---,0.02,VWS V13.01,2013-02-16 23:27:00,
2013-02-16 16:32:00,38.8,26.1,29.97,SW,236,0.0,0.0,60,0.01,,---,0.02,VWS V13.01,2013-02-16 23:32:00,
2013-02-16 16:37:00,38.5,26.2,29.97,SW,236,0.0,0.0,61,0.01,,---,0.02,VWS V13.01,2013-02-16 23:37:00,
2013-02-16 16:42:00,38.2,26.7,29.97,SW,236,0.0,0.0,63,0.01,,---,0.02,VWS V13.01,2013-02-16 23:42:00,
2013-02-16 16:47:00,38.0,26.5,29.97,SW,236,0.0,0.0,63,0.01,,---,0.02,VWS V13.01,2013-02-16 23:47:00,
2013-02-16 16:52:00,37.8,26.7,29.97,SW,236,0.0,0.0,64,0.01,,---,0.02,VWS V13.01,2013-02-16 23:52:00,
2013-02-16 16:58:00,37.6,26.5,29.97,SW,236,0.0,0.0,64,0.01,,---,0.02,VWS V13.01,2013-02-16 23:58:00,
2013-02-16 17:03:00,37.3,26.6,29.97,SW,236,0.0,0.0,65,0.01,,---,0.02,VWS V13.01,2013-02-17 00:03:00,
2013-02-16 17:08:00,37.0,26.3,29.97,SW,236,0.0,0.0,65,0.01,,---,0.02,VWS V13.01,2013-02-17 00:08:00,
2013-02-16 17:13:00,36.9,26.2,29.97,SW,236,0.0,0.0,65,0.01,,---,0.02,VWS V13.01,2013-02-17 00:13:00,
2013-02-16 17:18:00,36.6,26.0,29.97,SW,236,0.0,0.0,65,0.01,,---,0.02,VWS V13.01,2013-02-17 00:18:00,
2013-02-16 17:23:00,36.5,26.2,29.97,SW,236,0.0,0.0,66,0.01,,---,0.02,VWS V13.01,2013-02-17 00:23:00,
2013-02-16 17:28:00,36.2,25.6,29.97,SW,236,0.0,0.0,65,0.00,,---,0.02,VWS V13.01,2013-02-17 00:28:00,
2013-02-16 17:33:00,36.0,26.1,29.97,SW,236,0.0,0.0,67,0.00,,---,0.02,VWS V13.01,2013-02-17 00:33:00,
2013-02-16 17:38:00,35.8,25.9,29.97,SW,236,0.0,0.0,67,0.00,,---,0.02,VWS V13.01,2013-02-17 00:38:00,
2013-02-16 17:43:00,35.8,25.9,29.97,SW,236,0.0,0.0,67,0.00,,---,0.02,VWS V13.01,2013-02-17 00:43:00,
2013-02-16 17:48:00,35.5,25.6,29.96,East,98,0.0,1.0,67,0.00,,---,0.02,VWS V13.01,2013-02-17 00:48:00,
2013-02-16 17:53:00,35.2,25.7,29.96,East,98,0.0,0.0,68,0.00,,---,0.02,VWS V13.01,2013-02-17 00:53:00,
2013-02-16 17:58:00,35.2,25.7,29.96,East,98,0.0,0.0,68,0.00,,---,0.02,VWS V13.01,2013-02-17 00:58:00,
2013-02-16 18:04:00,35.3,25.5,29.96,East,98,0.0,0.0,67,0.00,,---,0.02,VWS V13.01,2013-02-17 01:04:00,
2013-02-16 18:09:00,35.2,25.4,29.96,East,98,0.0,0.0,67,0.00,,---,0.02,VWS V13.01,2013-02-17 01:09:00,
2013-02-16 18:14:00,34.9,25.1,29.96,East,98,0.0,0.0,67,0.00,,---,0.02,VWS V13.01,2013-02-17 01:14:00,
2013-02-16 18:19:00,34.4,25.3,29.96,East,98,0.0,0.0,69,0.00,,---,0.02,VWS V13.01,2013-02-17 01:19:00,
2013-02-16 18:24:00,34.3,24.9,29.96,East,98,0.0,1.0,68,0.00,,---,0.02,VWS V13.01,2013-02-17 01:24:00,
2013-02-16 18:29:00,34.1,25.4,29.96,East,98,0.0,0.0,70,0.00,,---,0.02,VWS V13.01,2013-02-17 01:29:00,
2013-02-16 18:34:00,33.8,24.7,29.96,East,98,0.0,0.0,69,0.00,,---,0.02,VWS V13.01,2013-02-17 01:34:00,
2013-02-16 18:39:00,34.0,25.3,29.96,East,98,0.0,0.0,70,0.00,,---,0.02,VWS V13.01,2013-02-17 01:39:00,
2013-02-16 18:44:00,34.1,25.0,29.96,East,98,0.0,2.0,69,0.00,,---,0.02,VWS V13.01,2013-02-17 01:44:00,
2013-02-16 18:49:00,34.3,24.9,29.95,East,98,0.0,1.0,68,0.00,,---,0.02,VWS V13.01,2013-02-17 01:49:00,
2013-02-16 18:54:00,34.1,25.4,29.95,East,98,0.0,1.0,70,0.00,,---,0.02,VWS V13.01,2013-02-17 01:54:00,
2013-02-16 18:59:00,34.1,25.4,29.95,East,98,0.0,0.0,70,0.00,,---,0.02,VWS V13.01,2013-02-17 01:59:00,
2013-02-16 19:05:00,34.0,24.6,29.94,East,98,0.0,1.0,68,0.00,,---,0.02,VWS V13.01,2013-02-17 02:05:00,
2013-02-16 19:10:00,34.0,24.6,29.94,East,98,0.0,1.0,68,0.00,,---,0.02,VWS V13.01,2013-02-17 02:10:00,
2013-02-16 19:15:00,34.0,24.6,29.94,East,98,0.0,2.0,68,0.00,,---,0.02,VWS V13.01,2013-02-17 02:15:00,
2013-02-16 19:20:00,34.1,25.0,29.94,East,98,0.0,1.0,69,0.00,,---,0.02,VWS V13.01,2013-02-17 02:20:00,
2013-02-16 19:25:00,34.3,25.5,29.94,East,98,0.0,1.0,70,0.00,,---,0.02,VWS V13.01,2013-02-17 02:25:00,
2013-02-16 19:30:00,34.4,26.0,29.94,East,98,0.0,0.0,71,0.00,,---,0.02,VWS V13.01,2013-02-17 02:30:00,
2013-02-16 19:35:00,34.6,26.2,29.93,East,98,0.0,0.0,71,0.00,,---,0.02,VWS V13.01,2013-02-17 02:35:00,
2013-02-16 19:40:00,34.9,25.4,29.93,East,98,0.0,1.0,68,0.00,,---,0.02,VWS V13.01,2013-02-17 02:40:00,
2013-02-16 19:45:00,34.9,26.1,29.93,East,98,0.0,0.0,70,0.00,,---,0.02,VWS V13.01,2013-02-17 02:45:00,
2013-02-16 19:50:00,35.0,26.6,29.92,East,98,1.0,1.0,71,0.00,,---,0.02,VWS V13.01,2013-02-17 02:50:00,
2013-02-16 19:55:00,35.2,26.4,29.92,East,98,0.0,0.0,70,0.00,,---,0.02,VWS V13.01,2013-02-17 02:55:00,
2013-02-16 20:00:00,35.3,26.9,29.90,East,98,0.0,0.0,71,0.00,,---,0.02,VWS V13.01,2013-02-17 03:00:00,
2013-02-16 20:06:00,35.3,26.9,29.90,East,98,0.0,1.0,71,0.00,,---,0.02,VWS V13.01,2013-02-17 03:06:00,
2013-02-16 20:11:00,35.3,26.5,29.90,East,98,0.0,1.0,70,0.00,,---,0.02,VWS V13.01,2013-02-17 03:11:00,
2013-02-16 20:16:00,35.3,26.5,29.88,East,98,0.0,0.0,70,0.00,,---,0.02,VWS V13.01,2013-02-17 03:16:00,
2013-02-16 20:21:00,35.2,26.4,29.88,East,98,0.0,2.0,70,0.00,,---,0.02,VWS V13.01,2013-02-17 03:21:00,
2013-02-16 20:26:00,35.0,26.2,29.88,East,98,0.0,0.0,70,0.00,,---,0.02,VWS V13.01,2013-02-17 03:26:00,
2013-02-16 20:31:00,34.7,25.6,29.88,East,98,0.0,0.0,69,0.00,,---,0.02,VWS V13.01,2013-02-17 03:31:00,
2013-02-16 20:36:00,34.4,25.0,29.88,ENE,65,0.0,2.0,68,0.00,,---,0.02,VWS V13.01,2013-02-17 03:36:00,
2013-02-16 20:41:00,34.6,25.1,29.88,ENE,65,0.0,0.0,68,0.00,,---,0.02,VWS V13.01,2013-02-17 03:41:00,
2013-02-16 20:46:00,34.6,24.4,29.86,ENE,65,0.0,0.0,66,0.00,,---,0.02,VWS V13.01,2013-02-17 03:46:00,
2013-02-16 20:51:00,34.7,25.2,29.86,ENE,65,0.0,0.0,68,0.00,,---,0.02,VWS V13.01,2013-02-17 03:51:00,
2013-02-16 20:57:00,34.7,24.9,29.86,ENE,65,0.0,0.0,67,0.00,,---,0.02,VWS V13.01,2013-02-17 03:57:00,
2013-02-16 21:02:00,34.7,24.5,29.85,ENE,65,0.0,0.0,66,0.00,,---,0.02,VWS V13.01,2013-02-17 04:02:00,
2013-02-16 21:07:00,34.6,24.4,29.85,ENE,65,0.0,0.0,66,0.00,,---,0.02,VWS V13.01,2013-02-17 04:07:00,
2013-02-16 21:12:00,34.4,23.5,29.85,ENE,65,0.0,0.0,64,0.00,,---,0.02,VWS V13.01,2013-02-17 04:12:00,
2013-02-16 21:17:00,34.4,23.9,29.84,ENE,65,0.0,0.0,65,0.00,,---,0.02,VWS V13.01,2013-02-17 04:17:00,
2013-02-16 21:22:00,34.4,23.5,29.84,ENE,65,0.0,1.0,64,0.00,,---,0.02,VWS V13.01,2013-02-17 04:22:00,
2013-02-16 21:27:00,34.3,23.8,29.84,ENE,65,0.0,0.0,65,0.00,,---,0.02,VWS V13.01,2013-02-17 04:27:00,
2013-02-16 21:32:00,34.1,24.0,29.83,ENE,65,0.0,0.0,66,0.00,,---,0.02,VWS V13.01,2013-02-17 04:32:00,
2013-02-16 21:37:00,34.3,23.8,29.83,ENE,65,0.0,0.0,65,0.00,,---,0.02,VWS V13.01,2013-02-17 04:37:00,
2013-02-16 21:42:00,34.3,23.8,29.83,NW,316,0.0,0.0,65,0.00,,---,0.02,VWS V13.01,2013-02-17 04:42:00,
2013-02-16 21:48:00,34.1,23.2,29.82,ENE,57,0.0,0.0,64,0.00,,---,0.02,VWS V13.01,2013-02-17 04:48:00,
2013-02-16 21:53:00,34.1,23.2,29.82,ENE,64,0.0,0.0,64,0.00,,---,0.02,VWS V13.01,2013-02-17 04:53:00,
2013-02-16 21:58:00,34.1,22.8,29.82,ENE,64,0.0,0.0,63,0.00,,---,0.02,VWS V13.01,2013-02-17 04:58:00,
2013-02-16 22:00:00,34.1,23.6,29.82,ENE,64,0.0,0.0,65,0.00,,---,0.02,VWS V13.01,2013-02-17 05:00:00,
2013-02-16 22:01:00,34.1,23.6,29.82,ENE,64,0.0,0.0,65,0.00,,---,0.02,VWS V13.01,2013-02-17 05:01:00,
2013-02-16 22:06:00,34.0,23.1,29.82,ENE,64,0.0,0.0,64,0.00,,---,0.02,VWS V13.01,2013-02-17 05:06:00,
2013-02-16 22:11:00,33.8,22.5,29.82,ENE,64,0.0,0.0,63,0.00,,---,0.02,VWS V13.01,2013-02-17 05:11:00,
2013-02-16 22:16:00,33.5,23.0,29.80,ENE,64,0.0,0.0,65,0.00,,---,0.02,VWS V13.01,2013-02-17 05:16:00,
2013-02-16 22:21:00,33.2,22.7,29.80,ENE,64,0.0,0.0,65,0.00,,---,0.02,VWS V13.01,2013-02-17 05:21:00,
2013-02-16 22:27:00,32.8,22.0,29.80,ENE,64,0.0,0.0,64,0.00,,---,0.02,VWS V13.01,2013-02-17 05:27:00,
2013-02-16 22:32:00,32.5,22.1,29.79,ENE,64,0.0,0.0,65,0.00,,---,0.02,VWS V13.01,2013-02-17 05:32:00,
2013-02-16 22:37:00,32.4,22.7,29.79,ENE,64,0.0,0.0,67,0.00,,---,0.02,VWS V13.01,2013-02-17 05:37:00,
2013-02-16 22:42:00,32.4,22.7,29.79,ENE,64,0.0,0.0,67,0.00,,---,0.02,VWS V13.01,2013-02-17 05:42:00,
2013-02-16 22:47:00,32.2,21.8,29.80,ENE,64,0.0,0.0,65,0.00,,---,0.02,VWS V13.01,2013-02-17 05:47:00,
2013-02-16 22:52:00,32.2,22.8,29.80,ENE,64,0.0,0.0,68,0.00,,---,0.02,VWS V13.01,2013-02-17 05:52:00,
2013-02-16 22:57:00,32.2,22.8,29.80,ENE,60,0.0,1.0,68,0.00,,---,0.02,VWS V13.01,2013-02-17 05:57:00,
2013-02-16 23:02:00,32.4,22.3,29.83,NNW,339,0.0,5.0,66,0.00,,---,0.02,VWS V13.01,2013-02-17 06:02:00,
2013-02-16 23:07:00,33.2,23.8,29.83,ENE,71,3.0,4.0,68,0.00,,---,0.02,VWS V13.01,2013-02-17 06:07:00,
2013-02-16 23:12:00,34.0,24.9,29.83,NE,39,0.0,0.0,69,0.00,,---,0.02,VWS V13.01,2013-02-17 06:12:00,
2013-02-16 23:17:00,34.7,25.6,29.84,NNE,28,0.0,0.0,69,0.00,,---,0.02,VWS V13.01,2013-02-17 06:17:00,
2013-02-16 23:22:00,35.2,26.4,29.84,ENE,59,0.0,0.0,70,0.00,,---,0.02,VWS V13.01,2013-02-17 06:22:00,
2013-02-16 23:27:00,35.3,26.5,29.84,ESE,111,0.0,5.0,70,0.00,,---,0.02,VWS V13.01,2013-02-17 06:27:00,
2013-02-16 23:32:00,35.3,26.5,29.83,ENE,75,0.0,4.0,70,0.00,,---,0.02,VWS V13.01,2013-02-17 06:32:00,
2013-02-16 23:37:00,35.3,26.5,29.83,ENE,78,0.0,4.0,70,0.00,,---,0.02,VWS V13.01,2013-02-17 06:37:00,
2013-02-16 23:43:00,35.2,26.4,29.83,ENE,77,0.0,4.0,70,0.00,,---,0.02,VWS V13.01,2013-02-17 06:43:00,
2013-02-16 23:48:00,34.9,25.8,29.83,NE,39,0.0,3.0,69,0.00,,---,0.02,VWS V13.01,2013-02-17 06:48:00,
2013-02-16 23:53:00,34.7,25.6,29.83,ENE,65,3.0,6.0,69,0.00,,---,0.02,VWS V13.01,2013-02-17 06:53:00,
2013-02-16 23:58:00,34.4,26.0,29.83,ENE,57,4.0,4.0,71,0.00,,---,0.02,VWS V13.01,2013-02-17 06:58:00,